Location: Unspecified
(17.7953°N, 0.0000°E)
Time: 02:06:29
(UTC+00:00)

Transit 2A - All Passes

Search period start: 04 April 2026 00:00
Search period end: 14 April 2026 00:00
Orbit: 591 x 953 km, 66.7° (Epoch: 29 March)

Date Brightness Start Highest point End Pass type
(mag) Time Alt. Az. Time Alt. Az. Time Alt. Az.
4 Apr - 01:15:26 10° SW 01:21:16 44° WNW 01:27:15 10° N night (unlit)
4 Apr - 10:18:17 10° NE 10:19:41 11° ENE 10:21:01 10° ENE daylight
4 Apr - 11:58:16 10° NW 12:02:51 43° WSW 12:07:05 10° S daylight
4 Apr - 23:00:59 10° ESE 23:02:23 11° ESE 23:03:47 10° E night (unlit)
5 Apr - 00:38:43 10° SSW 00:44:51 71° WNW 00:51:09 10° NNE night (unlit)
5 Apr - 11:21:40 10° NNW 11:26:35 83° WSW 11:31:02 10° SSE daylight
6 Apr - 00:02:22 10° SSW 00:08:29 73° ESE 00:14:46 10° NNE night (unlit)
6 Apr - 01:49:33 10° W 01:51:54 12° WNW 01:54:15 10° NW night (unlit)
6 Apr - 10:45:24 10° N 10:50:12 52° ENE 10:54:34 10° SE daylight
6 Apr - 23:26:21 10° S 23:32:10 44° ESE 23:38:06 10° NE night (unlit)
7 Apr - 01:10:51 10° WSW 01:15:17 20° WNW 01:19:47 10° NNW night (unlit)
7 Apr - 10:09:30 10° N 10:13:43 28° ENE 10:17:39 10° SE daylight
7 Apr - 11:53:39 10° WNW 11:56:18 15° WSW 11:58:51 10° SW daylight
7 Apr - 22:50:49 10° SSE 22:55:54 27° ESE 23:01:04 10° NE night (unlit)
8 Apr - 00:33:18 10° SW 00:38:45 32° WNW 00:44:17 10° N night (unlit)
8 Apr - 09:34:08 10° NNE 09:37:10 16° ENE 09:40:03 10° E daylight
8 Apr - 11:16:03 10° NW 11:20:06 28° WSW 11:23:53 10° SSW daylight
8 Apr - 22:16:00 10° SE 22:19:40 16° ESE 22:23:21 10° ENE night (unlit)
8 Apr - 23:56:17 10° SW 00:02:17 51° WNW 00:08:23 10° N night (unlit)
9 Apr - 10:39:10 10° NNW 10:43:51 53° WSW 10:48:09 10° S daylight
9 Apr - 23:19:40 10° SSW 23:25:52 82° WNW 23:32:12 10° NNE night (unlit)
10 Apr - 10:02:40 10° NNW 10:07:32 81° ENE 10:11:58 10° SSE daylight
10 Apr - 22:43:25 10° S 22:49:30 62° ESE 22:55:43 10° NNE night (unlit)
11 Apr - 00:29:34 10° W 00:32:49 14° WNW 00:36:05 10° NNW night (unlit)
11 Apr - 09:26:31 10° N 09:31:07 42° ENE 09:35:20 10° SE daylight
11 Apr - 22:07:33 10° S 22:13:12 38° ESE 22:18:57 10° NE night (unlit)
11 Apr - 23:51:22 10° WSW 23:56:14 23° WNW 00:01:07 10° NNW night (unlit)
12 Apr - 08:50:45 10° N 08:54:37 23° ENE 08:58:14 10° ESE daylight
12 Apr - 10:34:07 10° WNW 10:37:18 18° WSW 10:40:20 10° SSW daylight
12 Apr - 21:32:11 10° SSE 21:36:55 23° ESE 21:41:45 10° NE night (unlit)
12 Apr - 23:14:00 10° SW 23:19:43 37° WNW 23:25:28 10° N night (unlit)
13 Apr - 08:15:45 10° NNE 08:18:01 13° ENE 08:20:13 10° E daylight
13 Apr - 09:56:48 10° NW 10:01:04 34° WSW 10:05:03 10° S daylight
13 Apr - 20:57:47 10° SE 21:00:41 14° ESE 21:03:37 10° ENE night (unlit)
13 Apr - 22:37:08 10° SSW 22:43:15 60° WNW 22:49:28 10° NNE night (unlit)
